QPF
0.00 0.00 0.00 0.00 0.00 0.01 0.00 0.00 0.00 0.00 0.00 0.00 0.00 0.00 0.00 0.00 0.00 0.00 0.00 0.00 0.00 0.00 0.00 0.00 0.00 0.00 0.00 0.00 0.00 0.01 0.01 0.01 0.01 0.02 0.03 0.04 0.05 0.05
0.01 0.00 0.00 0.00 0.00 0.00 0.00 0.00 0.00 0.01 0.00 0.00 0.00 0.00 0.00 0.00 0.00 0.00 0.00 0.00 0.00 0.00 0.00 0.00 0.00 0.00 0.00 0.00 0.00 0.00 0.01 0.01 0.01 0.02 0.03 0.03 0.04 0.04
0.00 0.00 0.00 0.00 0.00 0.00 0.00 0.00 0.01 0.00 0.00 0.00 0.00 0.00 0.00 0.00 0.00 0.00 0.00 0.00 0.00 0.00 0.00 0.00 0.00 0.00 0.00 0.00 0.00 0.00 0.01 0.01 0.01 0.02 0.02 0.02 0.03 0.03
0.00 0.00 0.00 0.00 0.00 0.00 0.00 0.00 0.00 0.00 0.00 0.01 0.00 0.00 0.00 0.00 0.00 0.00 0.00 0.00 0.00 0.00 0.00 0.00 0.00 0.00 0.00 0.00 0.00 0.00 0.00 0.00 0.01 0.01 0.01 0.02 0.02 0.02
0.00 0.00 0.00 0.00 0.00 0.00 0.00 0.00 0.00 0.00 0.01 0.00 0.00 0.00 0.00 0.00 0.00 0.00 0.00 0.00 0.00 0.00 0.00 0.00 0.00 0.00 0.00 0.00 0.00 0.00 0.00 0.00 0.01 0.01 0.01 0.01 0.02 0.02
0.00 0.00 0.00 0.00 0.00 0.00 0.00 0.00 0.00 0.00 0.00 0.00 0.00 0.00 0.00 0.00 0.00 0.00 0.00 0.00 0.00 0.00 0.00 0.00 0.00 0.00 0.00 0.00 0.00 0.00 0.00 0.00 0.01 0.01 0.01 0.01 0.01 0.01
0.01 0.01 0.01 0.00 0.00 0.00 0.01 0.01 0.01 0.01 0.01 0.01 0.01 0.01 0.01 0.01 0.00 0.00 0.00 0.00 0.00 0.00 0.00 0.00 0.00 0.00 0.00 0.00 0.00 0.00 0.00 0.00 0.01 0.01 0.01 0.01 0.01 0.01
0.01 0.01 0.01 0.01 0.01 0.01 0.01 0.01 0.01 0.01 0.01 0.01 0.01 0.01 0.01 0.00 0.00 0.00 0.00 0.00 0.00 0.00 0.00 0.00 0.00 0.00 0.00 0.00 0.00 0.00 0.00 0.00 0.00 0.00 0.00 0.01 0.01 0.01
0.00 0.01 0.01 0.01 0.02 0.01 0.01 0.01 0.01 0.01 0.01 0.01 0.01 0.01 0.00 0.01 0.01 0.00 0.00 0.00 0.00 0.00 0.00 0.00 0.00 0.00 0.00 0.00 0.00 0.00 0.00 0.00 0.00 0.00 0.00 0.01 0.01 0.01
0.00 0.00 0.01 0.01 0.01 0.01 0.00 0.01 0.01 0.01 0.01 0.01 0.00 0.00 0.01 0.01 0.00 0.00 0.00 0.00 0.00 0.00 0.00 0.00 0.00 0.00 0.00 0.00 0.00 0.00 0.00 0.00 0.00 0.00 0.00 0.01 0.01 0.01
0.01 0.01 0.01 0.00 0.01 0.01 0.01 0.01 0.01 0.01 0.01 0.01 0.01 0.01 0.01 0.01 0.00 0.00 0.00 0.00 0.00 0.00 0.00 0.00 0.00 0.00 0.00 0.00 0.00 0.00 0.00 0.00 0.00 0.00 0.00 0.00 0.01 0.01
0.01 0.01 0.01 0.01 0.02 0.02 0.02 0.02 0.03 0.02 0.01 0.01 0.01 0.01 0.00 0.00 0.00 0.00 0.00 0.00 0.00 0.00 0.00 0.00 0.00 0.00 0.00 0.00 0.00 0.00 0.00 0.00 0.00 0.00 0.00 0.00 0.00 0.00
0.02 0.01 0.01 0.02 0.02 0.02 0.02 0.02 0.02 0.02 0.02 0.02 0.01 0.01 0.00 0.00 0.00 0.00 0.00 0.00 0.00 0.00 0.00 0.00 0.00 0.00 0.00 0.00 0.00 0.00 0.00 0.00 0.00 0.00 0.00 0.00 0.00 0.00
0.03 0.01 0.02 0.03 0.02 0.02 0.02 0.03 0.03 0.02 0.01 0.01 0.01 0.00 0.00 0.00 0.00 0.00 0.00 0.00 0.00 0.00 0.00 0.00 0.00 0.00 0.01 0.00 0.00 0.00 0.00 0.00 0.00 0.00 0.00 0.00 0.00 0.00
0.05 0.05 0.04 0.04 0.04 0.03 0.03 0.03 0.02 0.01 0.01 0.00 0.00 0.00 0.00 0.00 0.00 0.00 0.00 0.00 0.00 0.00 0.00 0.00 0.00 0.00 0.01 0.01 0.00 0.00 0.00 0.00 0.00 0.00 0.00 0.00 0.00 0.00
0.08 0.09 0.08 0.07 0.05 0.03 0.03 0.02 0.01 0.01 0.01 0.00 0.00 0.00 0.00 0.00 0.00 0.00 0.00 0.00 0.00 0.00 0.00 0.00 0.00 0.00 0.00 0.00 0.00 0.00 0.00 0.00 0.00 0.00 0.00 0.00 0.00 0.00
0.07 0.06 0.06 0.05 0.04 0.03 0.02 0.02 0.01 0.01 0.01 0.00 0.00 0.00 0.00 0.00 0.00 0.00 0.00 0.00 0.00 0.00 0.00 0.00 0.00 0.00 0.00 0.00 0.00 0.00 0.00 0.00 0.00 0.00 0.00 0.00 0.00 0.00
0.05 0.04 0.04 0.04 0.03 0.02 0.02 0.01 0.01 0.01 0.00 0.00 0.00 0.00 0.00 0.00 0.00 0.00 0.00 0.00 0.00 0.00 0.00 0.00 0.00 0.00 0.00 0.00 0.00 0.00 0.00 0.00 0.00 0.00 0.00 0.00 0.00 0.00
0.03 0.03 0.03 0.03 0.02 0.02 0.01 0.01 0.01 0.00 0.00 0.00 0.00 0.00 0.00 0.00 0.00 0.00 0.00 0.00 0.00 0.00 0.00 0.00 0.00 0.01 0.00 0.00 0.00 0.00 0.00 0.00 0.00 0.00 0.00 0.00 0.00 0.00
0.03 0.02 0.02 0.02 0.01 0.01 0.01 0.01 0.00 0.00 0.00 0.00 0.00 0.00 0.00 0.00 0.00 0.00 0.00 0.00 0.00 0.00 0.00 0.00 0.00 0.01 0.01 0.01 0.01 0.00 0.00 0.00 0.01 0.00 0.00 0.00 0.00 0.00
0.02 0.01 0.01 0.01 0.01 0.01 0.01 0.00 0.00 0.00 0.00 0.00 0.00 0.00 0.00 0.00 0.00 0.00 0.00 0.00 0.00 0.00 0.00 0.00 0.00 0.00 0.00 0.00 0.00 0.00 0.00 0.00 0.01 0.01 0.01 0.01 0.01 0.00
0.01 0.01 0.01 0.01 0.01 0.01 0.01 0.00 0.00 0.00 0.00 0.00 0.00 0.00 0.00 0.00 0.00 0.00 0.00 0.00 0.00 0.00 0.00 0.00 0.00 0.00 0.00 0.00 0.00 0.00 0.00 0.00 0.01 0.01 0.01 0.03 0.05 0.06
0.01 0.02 0.02 0.02 0.02 0.01 0.01 0.00 0.00 0.00 0.00 0.00 0.00 0.00 0.00 0.00 0.00 0.00 0.00 0.00 0.00 0.00 0.00 0.00 0.00 0.00 0.00 0.00 0.00 0.00 0.00 0.00 0.00 0.01 0.01 0.01 0.02 0.04
MSLP
1014.14 1014.67 1015.12 1015.49 1015.75 1015.90 1015.97 1015.97 1015.94 1015.90 1015.89 1015.92 1016.02 1016.16 1016.35 1016.56 1016.76 1016.94 1017.08 1017.15 1017.15 1017.08 1016.94 1016.73 1016.46 1016.14 1015.79 1015.42 1015.03 1014.63 1014.23 1013.84 1013.45 1013.07 1012.68 1012.28 1011.87 1011.43
1013.40 1013.95 1014.44 1014.85 1015.17 1015.39 1015.53 1015.60 1015.63 1015.64 1015.67 1015.73 1015.83 1015.98 1016.16 1016.36 1016.56 1016.73 1016.87 1016.95 1016.98 1016.93 1016.82 1016.65 1016.43 1016.16 1015.86 1015.52 1015.17 1014.80 1014.43 1014.06 1013.68 1013.30 1012.92 1012.51 1012.08 1011.60
1012.62 1013.18 1013.70 1014.16 1014.55 1014.85 1015.07 1015.23 1015.33 1015.41 1015.49 1015.58 1015.69 1015.84 1016.00 1016.17 1016.34 1016.50 1016.62 1016.71 1016.75 1016.73 1016.67 1016.56 1016.40 1016.20 1015.95 1015.68 1015.38 1015.06 1014.73 1014.38 1014.03 1013.66 1013.27 1012.86 1012.40 1011.89
1011.84 1012.40 1012.94 1013.46 1013.91 1014.30 1014.62 1014.88 1015.08 1015.23 1015.37 1015.50 1015.63 1015.76 1015.90 1016.04 1016.18 1016.30 1016.41 1016.49 1016.54 1016.55 1016.54 1016.48 1016.38 1016.25 1016.07 1015.86 1015.62 1015.34 1015.05 1014.73 1014.40 1014.04 1013.65 1013.22 1012.74 1012.19
1011.10 1011.65 1012.21 1012.77 1013.29 1013.77 1014.20 1014.56 1014.86 1015.12 1015.33 1015.50 1015.66 1015.79 1015.92 1016.03 1016.14 1016.23 1016.31 1016.38 1016.43 1016.46 1016.47 1016.46 1016.41 1016.32 1016.20 1016.03 1015.82 1015.58 1015.31 1015.01 1014.69 1014.34 1013.95 1013.51 1013.01 1012.43
1010.41 1010.96 1011.54 1012.14 1012.73 1013.30 1013.83 1014.30 1014.72 1015.08 1015.37 1015.62 1015.81 1015.97 1016.09 1016.19 1016.27 1016.34 1016.39 1016.44 1016.48 1016.52 1016.54 1016.53 1016.50 1016.43 1016.31 1016.16 1015.96 1015.72 1015.45 1015.15 1014.83 1014.48 1014.09 1013.65 1013.14 1012.56
1009.81 1010.35 1010.95 1011.59 1012.25 1012.91 1013.54 1014.13 1014.66 1015.12 1015.51 1015.83 1016.09 1016.28 1016.43 1016.53 1016.61 1016.66 1016.70 1016.72 1016.74 1016.76 1016.75 1016.72 1016.66 1016.56 1016.42 1016.23 1015.99 1015.73 1015.43 1015.11 1014.78 1014.43 1014.04 1013.62 1013.13 1012.57
1009.29 1009.86 1010.48 1011.17 1011.89 1012.63 1013.35 1014.05 1014.68 1015.25 1015.74 1016.15 1016.48 1016.73 1016.91 1017.04 1017.13 1017.18 1017.21 1017.21 1017.20 1017.17 1017.12 1017.03 1016.90 1016.73 1016.51 1016.24 1015.94 1015.61 1015.27 1014.91 1014.56 1014.20 1013.83 1013.42 1012.97 1012.46
1008.89 1009.49 1010.15 1010.89 1011.67 1012.48 1013.29 1014.07 1014.80 1015.46 1016.05 1016.54 1016.94 1017.26 1017.50 1017.67 1017.78 1017.85 1017.87 1017.86 1017.81 1017.72 1017.59 1017.42 1017.20 1016.92 1016.60 1016.23 1015.83 1015.42 1015.00 1014.60 1014.22 1013.85 1013.49 1013.12 1012.73 1012.28
1008.61 1009.26 1009.99 1010.78 1011.62 1012.50 1013.37 1014.22 1015.02 1015.76 1016.41 1016.98 1017.45 1017.83 1018.13 1018.35 1018.49 1018.58 1018.60 1018.57 1018.48 1018.34 1018.13 1017.86 1017.53 1017.14 1016.70 1016.21 1015.71 1015.20 1014.71 1014.26 1013.84 1013.47 1013.12 1012.79 1012.45 1012.08
1008.48 1009.21 1010.00 1010.85 1011.76 1012.68 1013.60 1014.50 1015.35 1016.13 1016.83 1017.44 1017.96 1018.39 1018.73 1018.99 1019.17 1019.28 1019.31 1019.26 1019.14 1018.94 1018.67 1018.31 1017.88 1017.38 1016.82 1016.24 1015.63 1015.04 1014.48 1013.97 1013.53 1013.14 1012.80 1012.50 1012.20 1011.89
1008.49 1009.31 1010.19 1011.11 1012.07 1013.04 1013.99 1014.91 1015.78 1016.57 1017.29 1017.92 1018.46 1018.91 1019.27 1019.56 1019.76 1019.88 1019.91 1019.86 1019.72 1019.48 1019.15 1018.73 1018.22 1017.63 1017.00 1016.32 1015.64 1014.98 1014.37 1013.81 1013.33 1012.91 1012.57 1012.27 1012.00 1011.72
1008.64 1009.57 1010.53 1011.53 1012.54 1013.55 1014.52 1015.44 1016.30 1017.09 1017.78 1018.40 1018.92 1019.37 1019.73 1020.02 1020.22 1020.35 1020.38 1020.33 1020.17 1019.91 1019.55 1019.08 1018.53 1017.90 1017.21 1016.48 1015.75 1015.05 1014.38 1013.78 1013.26 1012.81 1012.44 1012.12 1011.83 1011.56
1008.91 1009.95 1011.01 1012.08 1013.14 1014.17 1015.16 1016.07 1016.90 1017.65 1018.31 1018.88 1019.37 1019.78 1020.11 1020.38 1020.57 1020.68 1020.71 1020.65 1020.49 1020.22 1019.85 1019.37 1018.80 1018.15 1017.44 1016.70 1015.94 1015.20 1014.51 1013.87 1013.30 1012.81 1012.38 1012.01 1011.68 1011.38
1009.27 1010.41 1011.56 1012.69 1013.80 1014.86 1015.85 1016.74 1017.54 1018.24 1018.85 1019.36 1019.79 1020.14 1020.43 1020.66 1020.82 1020.91 1020.93 1020.86 1020.69 1020.42 1020.05 1019.58 1019.02 1018.38 1017.67 1016.93 1016.17 1015.41 1014.69 1014.02 1013.40 1012.84 1012.34 1011.90 1011.50 1011.14
1009.69 1010.91 1012.13 1013.32 1014.47 1015.55 1016.53 1017.41 1018.18 1018.83 1019.38 1019.83 1020.20 1020.49 1020.72 1020.90 1021.02 1021.08 1021.07 1020.99 1020.82 1020.55 1020.19 1019.73 1019.18 1018.55 1017.86 1017.13 1016.37 1015.61 1014.87 1014.16 1013.49 1012.86 1012.29 1011.76 1011.28 1010.83
1010.13 1011.41 1012.68 1013.91 1015.09 1016.17 1017.16 1018.02 1018.76 1019.38 1019.88 1020.27 1020.58 1020.82 1021.00 1021.13 1021.21 1021.23 1021.19 1021.09 1020.91 1020.64 1020.28 1019.83 1019.29 1018.68 1018.00 1017.28 1016.52 1015.75 1014.99 1014.24 1013.52 1012.83 1012.18 1011.57 1011.00 1010.48
1010.56 1011.87 1013.16 1014.41 1015.60 1016.69 1017.68 1018.53 1019.25 1019.84 1020.31 1020.68 1020.95 1021.15 1021.28 1021.37 1021.41 1021.40 1021.33 1021.21 1021.00 1020.72 1020.35 1019.90 1019.36 1018.75 1018.08 1017.35 1016.60 1015.82 1015.04 1014.26 1013.50 1012.76 1012.04 1011.36 1010.73 1010.13
1010.98 1012.29 1013.58 1014.82 1016.01 1017.10 1018.07 1018.92 1019.64 1020.22 1020.68 1021.03 1021.28 1021.46 1021.57 1021.63 1021.65 1021.61 1021.52 1021.36 1021.13 1020.83 1020.44 1019.97 1019.42 1018.79 1018.11 1017.38 1016.62 1015.83 1015.03 1014.24 1013.45 1012.67 1011.91 1011.18 1010.49 1009.85
1011.40 1012.68 1013.94 1015.16 1016.33 1017.40 1018.37 1019.21 1019.93 1020.51 1020.98 1021.33 1021.58 1021.76 1021.87 1021.92 1021.92 1021.87 1021.75 1021.58 1021.32 1020.99 1020.57 1020.07 1019.50 1018.86 1018.16 1017.42 1016.64 1015.84 1015.04 1014.23 1013.42 1012.62 1011.84 1011.09 1010.36 1009.68
1011.84 1013.07 1014.28 1015.46 1016.59 1017.64 1018.60 1019.44 1020.16 1020.75 1021.22 1021.59 1021.86 1022.05 1022.17 1022.23 1022.23 1022.17 1022.05 1021.85 1021.58 1021.22 1020.77 1020.25 1019.65 1018.98 1018.26 1017.51 1016.72 1015.92 1015.11 1014.30 1013.49 1012.68 1011.89 1011.12 1010.37 1009.65
1012.31 1013.48 1014.64 1015.77 1016.86 1017.88 1018.81 1019.64 1020.36 1020.96 1021.45 1021.84 1022.13 1022.34 1022.48 1022.56 1022.57 1022.51 1022.39 1022.18 1021.90 1021.52 1021.06 1020.52 1019.90 1019.21 1018.48 1017.71 1016.92 1016.12 1015.31 1014.50 1013.70 1012.89 1012.09 1011.29 1010.51 1009.75
1012.82 1013.93 1015.04 1016.12 1017.17 1018.15 1019.06 1019.88 1020.59 1021.19 1021.70 1022.10 1022.41 1022.64 1022.80 1022.90 1022.93 1022.88 1022.77 1022.57 1022.28 1021.91 1021.44 1020.89 1020.26 1019.58 1018.84 1018.08 1017.29 1016.49 1015.69 1014.88 1014.07 1013.25 1012.43 1011.60 1010.76 1009.93
Thickness
5618 5615 5612 5609 5606 5603 5600 5597 5593 5591 5590 5584 5576 5569 5561 5555 5549 5544 5538 5532 5526 5519 5512 5505 5497 5490 5482 5474 5467 5459 5452 5444 5437 5430 5425 5419 5414 5408
5615 5612 5608 5605 5601 5597 5594 5591 5588 5584 5582 5580 5572 5564 5555 5549 5542 5537 5532 5525 5519 5512 5505 5497 5490 5482 5474 5466 5458 5450 5442 5435 5427 5420 5414 5408 5402 5396
5611 5608 5604 5600 5597 5592 5588 5584 5580 5577 5574 5572 5565 5557 5549 5543 5537 5530 5524 5519 5513 5505 5497 5490 5482 5474 5466 5458 5450 5441 5433 5425 5418 5411 5404 5398 5391 5385
5609 5605 5601 5596 5593 5588 5583 5580 5576 5571 5567 5564 5559 5551 5543 5536 5530 5524 5517 5511 5505 5498 5490 5482 5474 5466 5457 5449 5441 5432 5424 5416 5408 5401 5394 5388 5381 5374
5606 5603 5598 5594 5590 5585 5580 5576 5570 5564 5559 5555 5551 5544 5536 5529 5522 5516 5510 5504 5497 5490 5482 5475 5466 5458 5450 5441 5432 5424 5415 5407 5400 5392 5385 5377 5371 5365
5603 5599 5595 5591 5587 5582 5577 5571 5565 5559 5553 5547 5542 5537 5529 5521 5514 5509 5504 5497 5490 5481 5474 5467 5459 5450 5442 5433 5425 5416 5407 5399 5390 5383 5375 5368 5362 5356
5598 5595 5591 5587 5583 5578 5573 5567 5560 5553 5547 5541 5536 5530 5523 5514 5508 5503 5496 5490 5482 5473 5465 5460 5453 5445 5436 5427 5417 5407 5398 5390 5382 5374 5367 5360 5354 5349
5594 5590 5586 5581 5576 5571 5567 5561 5556 5550 5543 5537 5531 5525 5519 5510 5503 5493 5486 5480 5476 5467 5456 5451 5443 5436 5427 5419 5409 5399 5390 5381 5373 5366 5359 5353 5348 5343
5591 5586 5581 5577 5571 5565 5560 5553 5547 5542 5538 5533 5526 5520 5512 5504 5495 5486 5478 5470 5464 5455 5446 5442 5434 5426 5418 5410 5400 5391 5382 5373 5365 5358 5352 5347 5342 5337
5587 5583 5578 5572 5566 5561 5554 5547 5541 5535 5529 5524 5519 5511 5503 5495 5487 5479 5470 5460 5452 5444 5435 5430 5425 5417 5409 5401 5392 5382 5374 5366 5358 5351 5346 5340 5335 5331
5581 5577 5573 5568 5562 5554 5548 5541 5534 5527 5520 5513 5507 5500 5492 5484 5477 5469 5459 5452 5445 5438 5426 5418 5414 5406 5399 5392 5384 5374 5366 5359 5352 5346 5340 5334 5329 5325
5574 5570 5567 5563 5556 5549 5544 5537 5529 5521 5513 5505 5498 5490 5483 5475 5467 5460 5451 5443 5435 5428 5418 5407 5401 5393 5388 5383 5375 5368 5360 5353 5346 5340 5334 5328 5323 5320
5569 5565 5561 5555 5549 5543 5537 5532 5525 5516 5507 5498 5490 5482 5475 5467 5459 5450 5441 5434 5425 5417 5407 5397 5388 5380 5372 5369 5366 5360 5354 5348 5341 5336 5330 5324 5319 5314
5565 5560 5555 5548 5541 5535 5529 5523 5515 5507 5499 5491 5483 5475 5467 5459 5450 5440 5432 5423 5415 5407 5397 5387 5378 5370 5362 5357 5356 5353 5346 5340 5335 5330 5325 5320 5316 5311
5558 5553 5547 5540 5532 5526 5520 5514 5506 5499 5492 5484 5477 5468 5459 5450 5441 5432 5423 5414 5406 5397 5389 5379 5370 5362 5354 5348 5345 5342 5338 5335 5329 5325 5320 5316 5313 5310
5547 5541 5535 5529 5523 5518 5511 5504 5498 5492 5486 5478 5469 5460 5450 5441 5433 5424 5416 5407 5399 5390 5380 5372 5363 5355 5348 5343 5338 5334 5330 5327 5324 5320 5316 5313 5310 5308
5539 5532 5526 5520 5514 5508 5502 5496 5490 5483 5476 5469 5461 5452 5442 5433 5425 5416 5407 5399 5392 5383 5374 5364 5356 5349 5343 5338 5333 5330 5326 5322 5319 5315 5312 5310 5309 5306
5533 5527 5521 5516 5510 5504 5497 5489 5482 5476 5469 5461 5453 5444 5435 5426 5417 5408 5401 5392 5384 5375 5366 5357 5349 5344 5340 5336 5329 5324 5321 5318 5315 5311 5308 5307 5307 5306
5527 5522 5516 5510 5504 5498 5491 5484 5476 5468 5461 5453 5445 5436 5427 5419 5411 5402 5394 5385 5376 5367 5358 5349 5342 5336 5333 5331 5327 5320 5315 5313 5310 5308 5307 5304 5303 5303
5521 5517 5510 5504 5498 5492 5484 5477 5469 5461 5453 5446 5437 5428 5420 5412 5404 5396 5387 5377 5369 5360 5351 5344 5337 5330 5324 5320 5317 5316 5312 5309 5307 5305 5304 5303 5302 5302
5513 5509 5504 5498 5491 5485 5478 5471 5463 5455 5447 5438 5430 5421 5413 5405 5397 5389 5380 5370 5362 5354 5346 5339 5331 5324 5318 5315 5314 5315 5313 5308 5304 5301 5300 5300 5301 5303
5507 5502 5496 5491 5485 5478 5471 5464 5456 5448 5439 5432 5424 5415 5407 5399 5390 5382 5373 5364 5356 5348 5340 5333 5327 5322 5317 5314 5312 5311 5310 5308 5305 5302 5299 5296 5295 5297
5500 5495 5489 5484 5478 5472 5465 5458 5450 5442 5434 5425 5417 5409 5400 5392 5384 5375 5367 5358 5350 5341 5335 5329 5324 5319 5315 5312 5309 5308 5306 5305 5304 5303 5301 5299 5296 5295